Wind_Speed
12 12 13 15 18 20 24 28 31 34 39 41 43 45 49 51 54 56 59 60 62 63 65 67 68 69 69 70 70 71 71 72 74 75 75 75 75 75 75 75 73 70 67 65
13 13 14 18 20 23 28 32 35 37 41 45 47 50 53 55 58 61 64 65 67 68 70 71 71 71 70 69 69 69 68 69 69 71 72 74 76 77 78 79 78 77 75 72
17 17 18 20 24 27 32 36 39 41 44 48 51 53 55 58 62 65 67 69 71 71 71 69 68 66 64 61 59 56 54 53 53 55 57 60 63 67 70 73 75 76 76 76
21 22 22 25 28 32 35 39 42 44 47 50 53 55 58 62 66 67 68 69 69 68 66 63 60 57 53 50 46 42 39 37 37 36 37 39 41 44 47 51 56 61 65 68
23 24 28 32 33 36 39 43 45 47 50 54 57 60 61 64 66 67 67 66 65 62 58 53 48 45 42 39 37 34 33 33 32 31 31 30 31 31 33 34 37 41 45 50
27 29 32 36 38 40 43 47 50 53 56 59 62 64 64 65 66 66 65 62 58 54 49 44 41 39 37 35 34 34 34 33 33 32 31 30 30 29 28 28 29 31 32 34
29 31 36 37 41 43 45 48 51 53 57 61 63 65 66 66 65 63 60 55 51 48 45 42 40 39 38 38 38 38 38 37 37 36 34 33 31 29 28 27 27 27 26 28
31 33 37 39 42 45 47 50 53 57 60 63 64 66 66 65 62 58 54 50 48 46 45 43 42 42 41 41 42 42 41 40 39 38 36 34 32 30 28 27 25 24 23 24
33 35 38 41 44 47 50 53 57 60 63 65 66 66 65 61 56 52 50 49 48 47 46 45 44 44 45 45 45 44 42 41 40 39 37 35 33 31 29 27 25 24 22 21
34 36 40 43 47 49 52 56 59 62 64 66 66 65 61 56 52 50 49 49 49 49 48 47 47 46 47 46 46 45 44 42 41 39 37 35 33 31 30 28 26 25 23 21
36 40 42 45 48 51 54 57 61 63 65 66 66 62 58 54 52 51 51 51 51 50 49 49 48 48 47 46 45 44 43 41 39 38 35 33 32 31 30 28 27 25 23 22
38 41 44 46 49 53 56 59 62 64 65 65 63 59 54 52 52 53 52 51 51 50 50 49 48 46 45 44 43 41 40 39 38 37 35 33 32 30 29 28 27 25 23 23
39 42 44 47 50 54 57 60 62 65 66 64 60 55 53 53 53 53 52 52 52 51 50 48 46 44 43 42 41 39 37 36 34 33 32 31 30 28 27 26 25 24 23 23
41 43 45 48 51 55 58 61 63 64 64 61 57 54 53 53 54 53 52 52 52 51 49 47 45 42 40 39 37 35 33 31 30 28 27 27 26 25 25 24 24 23 23 22
42 45 47 50 52 55 59 61 63 63 62 58 54 53 53 53 53 53 52 52 51 50 47 44 42 40 38 36 33 30 27 26 24 24 23 23 22 22 21 21 20 20 21 20
42 45 47 50 52 55 59 61 63 64 61 57 54 53 53 53 53 53 52 52 50 47 45 42 40 37 35 32 28 24 22 20 18 16 17 17 17 18 18 18 18 18 19 18
43 45 48 51 53 56 59 61 64 64 60 56 53 52 51 52 52 52 50 49 47 45 43 41 38 35 32 28 24 20 16 14 11 9 10 11 13 14 15 15 16 17 18 19
44 46 49 52 55 57 59 61 63 62 59 55 53 51 51 51 51 51 49 47 45 44 42 39 35 32 28 23 19 14 11 6 3 3 5 7 11 13 14 15 17 18 19 20
44 46 49 52 54 57 59 60 62 61 57 53 51 50 50 49 49 49 47 46 45 43 41 38 35 32 26 21 17 13 9 5 3 3 6 9 12 15 16 16 18 19 20 21
44 46 48 51 54 56 57 59 60 59 56 52 50 48 47 47 47 47 46 45 44 43 40 38 35 31 27 23 20 16 13 11 10 10 11 13 14 15 17 18 21 23 23 24
44 46 48 50 52 55 56 58 59 58 55 51 48 46 45 44 45 45 44 43 42 40 38 36 33 31 28 24 21 20 18 17 17 17 18 18 19 20 21 23 25 26 26 28
43 45 47 49 51 53 55 56 57 56 54 50 45 43 42 41 41 42 42 41 40 38 37 34 33 31 29 26 24 23 22 22 22 22 22 23 24 25 25 27 27 28 30 34
43 45 47 49 50 52 53 54 55 55 52 48 44 41 40 39 39 39 39 38 38 36 35 34 31 29 28 27 26 26 26 26 26 25 25 25 25 26 27 29 30 31 32 33
43 44 46 48 49 50 51 52 53 52 50 47 43 39 37 36 36 36 36 36 35 34 33 32 30 27 27 27 27 28 28 28 28 27 27 27 27 28 30 31 31 32 32 33
43 44 45 47 48 48 49 50 51 50 48 45 41 36 34 33 33 33 33 32 32 31 30 30 29 27 26 26 27 28 28 28 28 28 28 28 28 29 30 31 32 32 31 30
42 43 44 46 46 47 48 48 49 49 46 43 39 34 31 29 29 28 28 27 27 28 27 26 25 24 23 24 24 25 25 26 26 27 27 27 28 29 30 30 29 29 28 27
42 42 43 45 45 46 46 46 47 47 45 42 38 32 28 26 25 24 23 23 23 24 24 23 22 21 21 21 22 22 23 24 24 24 24 24 24 25 25 26 26 26 24 23
Wind_Direction
322 320 311 304 304 304 304 306 306 305 303 305 306 304 304 304 303 302 301 300 300 298 295 293 291 289 287 285 283 280 278 276 274 273 271 270 269 269 268 268 267 266 265 264
326 324 316 305 307 311 309 309 308 308 307 308 308 307 307 307 306 304 304 303 301 299 298 296 294 292 290 288 286 284 281 279 276 274 273 271 269 268 267 267 267 265 264 263
330 327 319 309 317 315 311 311 312 313 312 310 309 310 310 309 307 306 306 305 304 303 301 299 298 296 295 293 292 290 288 285 282 280 277 275 273 271 269 267 266 265 264 263
331 330 318 319 321 316 314 314 314 315 313 313 313 313 314 312 310 310 309 308 306 305 303 302 301 299 298 297 297 296 295 295 294 292 289 286 282 279 275 271 268 266 264 262
332 331 319 322 323 319 318 317 318 318 317 318 317 317 316 315 313 313 311 309 307 306 305 305 304 303 301 299 297 296 295 295 295 295 296 295 293 290 284 279 275 270 265 262
331 328 320 325 323 323 323 322 324 323 322 320 319 318 319 317 316 314 312 311 311 310 309 308 306 304 301 300 298 296 295 295 294 294 295 295 294 292 289 285 281 276 269 262
328 326 322 328 324 324 324 323 323 321 320 320 321 321 321 320 318 317 316 314 313 312 311 309 306 303 301 298 297 295 293 292 292 291 291 291 290 289 287 285 282 278 273 263
327 327 325 326 323 323 323 323 324 324 324 324 324 324 323 322 321 320 318 316 314 312 310 307 304 301 298 296 294 293 291 290 289 288 287 286 285 284 284 282 280 277 274 267
327 326 325 324 324 325 326 326 327 327 327 327 327 327 325 324 323 321 320 318 315 313 310 307 304 301 298 296 294 292 290 288 286 285 283 281 281 279 277 276 275 274 271 266
326 327 328 327 327 327 328 328 328 329 329 329 329 328 327 326 324 323 321 319 316 314 312 309 305 301 299 297 295 292 289 287 285 283 279 276 275 274 272 271 269 269 266 262
328 329 330 328 327 328 329 329 330 331 331 331 331 330 329 328 327 325 323 320 318 316 314 312 308 303 301 298 295 292 289 286 283 280 276 273 271 269 267 265 263 261 259 255
329 329 328 329 329 330 331 332 333 333 334 334 333 332 332 330 328 327 325 323 320 318 316 313 310 306 303 300 297 294 290 287 282 276 272 270 269 266 262 260 258 255 252 246
328 329 329 330 331 332 333 334 335 336 336 337 336 334 333 332 330 329 328 325 323 321 319 316 313 310 307 304 299 295 292 288 282 276 270 267 265 262 257 255 253 248 244 239
328 329 331 332 333 334 335 336 337 338 339 338 338 337 335 334 333 332 330 328 326 325 323 321 319 316 313 309 304 298 293 288 282 275 268 263 259 255 252 249 246 240 236 233
329 331 332 333 334 336 336 337 339 340 341 341 341 339 338 337 336 335 333 332 331 331 328 325 323 321 318 315 309 303 298 291 282 273 264 258 253 249 243 240 234 229 226 222
330 331 333 334 336 337 338 340 341 343 343 344 343 342 341 340 339 339 338 337 336 336 335 332 331 329 327 323 318 310 302 294 285 271 260 251 243 236 230 225 219 214 210 208
330 332 334 335 337 339 340 342 343 344 345 346 345 344 344 344 343 343 343 342 343 343 342 340 339 337 334 331 328 322 313 299 283 267 253 236 224 215 210 206 202 198 195 192
331 333 335 336 338 340 341 343 345 346 347 347 347 346 347 347 348 349 349 349 350 351 351 349 349 348 346 345 344 341 336 326 294 258 219 199 192 188 185 185 184 181 179 178
331 333 335 337 338 340 342 344 345 347 348 348 348 349 350 350 352 354 355 356 356 357 358 359 360 1 2 3 5 7 11 26 64 108 137 151 157 160 163 167 168 168 167 167
330 333 335 337 339 340 342 344 346 348 349 349 350 351 353 354 355 357 359 1 2 2 4 7 10 12 14 20 29 38 48 64 83 102 118 130 141 148 150 152 153 154 154 155
329 332 335 337 339 340 342 345 347 349 350 350 351 353 355 356 358 1 3 6 8 9 11 15 19 23 27 35 43 51 61 73 86 96 107 114 120 126 130 136 140 142 146 148
328 331 334 336 338 340 343 345 347 349 351 351 352 354 355 357 360 3 6 9 12 14 16 21 25 30 37 43 52 61 69 77 85 92 98 104 111 118 122 127 131 135 139 142
326 329 333 336 338 340 342 345 347 349 350 352 353 354 356 358 0 4 8 11 14 17 20 24 30 36 44 51 61 69 76 81 88 94 99 104 109 115 119 122 126 129 133 137
324 328 331 334 337 339 342 344 347 349 350 352 353 354 357 359 2 5 8 12 17 22 26 30 36 45 53 61 67 72 78 84 89 92 97 102 108 113 118 121 124 127 131 135
322 325 329 333 335 338 341 343 347 349 350 351 353 353 355 359 3 7 10 14 20 24 29 34 42 50 59 66 72 77 81 85 89 92 96 101 107 113 118 121 123 126 130 133
319 322 327 331 334 337 340 343 346 349 350 351 353 353 355 359 3 8 12 17 22 27 32 38 44 53 61 68 75 80 83 87 91 95 99 103 108 114 119 123 125 128 131 133
316 320 325 329 333 336 338 341 344 347 349 349 352 353 354 357 2 7 12 18 24 28 34 42 49 57 66 73 76 79 84 89 94 97 101 107 113 117 120 125 129 130 132 135
Height
5850 5849 5847 5846 5843 5839 5835 5831 5826 5821 5813 5807 5802 5795 5788 5781 5773 5765 5757 5750 5743 5735 5727 5720 5713 5706 5700 5694 5689 5684 5681 5678 5674 5672 5670 5670 5669 5669 5670 5671 5674 5677 5680 5684
5848 5846 5844 5842 5838 5835 5830 5824 5819 5814 5807 5799 5792 5785 5777 5769 5760 5750 5742 5733 5724 5715 5706 5698 5690 5682 5676 5670 5664 5659 5655 5652 5649 5646 5645 5644 5644 5645 5646 5647 5649 5652 5656 5661
5845 5842 5839 5836 5833 5829 5823 5817 5811 5805 5799 5790 5782 5774 5766 5756 5745 5735 5725 5714 5704 5694 5684 5675 5666 5659 5652 5646 5640 5635 5631 5628 5625 5623 5622 5620 5620 5620 5621 5622 5623 5626 5630 5636
5841 5838 5834 5833 5827 5822 5816 5809 5803 5797 5788 5780 5771 5762 5753 5742 5729 5718 5707 5695 5684 5673 5664 5655 5646 5639 5633 5627 5623 5619 5615 5612 5609 5607 5605 5603 5602 5600 5600 5600 5600 5602 5605 5611
5837 5834 5829 5824 5821 5814 5808 5800 5794 5786 5777 5768 5758 5748 5740 5726 5713 5701 5689 5678 5666 5656 5646 5638 5630 5624 5619 5614 5610 5607 5604 5601 5598 5596 5594 5591 5589 5587 5586 5585 5585 5585 5586 5590
5832 5828 5823 5819 5812 5805 5800 5790 5782 5773 5763 5754 5744 5733 5724 5711 5698 5685 5672 5660 5649 5640 5632 5625 5619 5613 5608 5604 5600 5597 5594 5591 5589 5586 5584 5582 5580 5578 5576 5574 5573 5573 5574 5576
5829 5824 5816 5813 5804 5799 5793 5785 5776 5766 5755 5744 5732 5719 5707 5694 5681 5667 5655 5645 5635 5627 5620 5614 5608 5603 5598 5594 5590 5586 5583 5580 5578 5576 5574 5572 5570 5569 5567 5565 5564 5563 5563 5564
5824 5819 5813 5806 5798 5792 5785 5775 5765 5754 5743 5730 5718 5705 5691 5677 5664 5653 5642 5633 5624 5616 5609 5603 5597 5591 5586 5582 5578 5574 5570 5568 5566 5564 5562 5561 5560 5559 5558 5556 5555 5555 5555 5555
5819 5815 5807 5799 5791 5783 5774 5765 5754 5742 5731 5717 5704 5691 5677 5664 5652 5641 5631 5622 5613 5605 5597 5591 5584 5578 5573 5568 5563 5559 5556 5554 5552 5550 5549 5549 5548 5548 5548 5548 5547 5547 5548 5548
5813 5808 5801 5792 5783 5775 5766 5755 5744 5732 5718 5705 5691 5677 5664 5652 5641 5631 5621 5611 5602 5593 5585 5578 5571 5564 5558 5553 5548 5544 5541 5539 5537 5536 5536 5536 5536 5536 5537 5538 5539 5539 5540 5541
5807 5800 5794 5786 5777 5767 5758 5747 5734 5721 5707 5693 5679 5665 5652 5641 5630 5620 5610 5600 5590 5581 5572 5564 5556 5549 5543 5537 5532 5528 5525 5523 5522 5521 5522 5523 5524 5525 5526 5528 5529 5531 5532 5534
5802 5794 5787 5779 5769 5759 5749 5737 5725 5711 5697 5683 5668 5654 5642 5631 5620 5609 5599 5589 5578 5569 5559 5550 5542 5534 5528 5521 5516 5512 5510 5508 5507 5506 5508 5509 5511 5513 5515 5517 5519 5521 5524 5527
5796 5789 5781 5772 5762 5751 5740 5728 5715 5701 5687 5673 5659 5646 5634 5623 5611 5600 5588 5577 5567 5556 5546 5537 5528 5520 5513 5507 5501 5498 5495 5493 5492 5493 5494 5496 5499 5502 5504 5507 5509 5513 5516 5520
5789 5782 5774 5765 5755 5744 5732 5719 5706 5693 5678 5664 5650 5638 5626 5615 5603 5591 5579 5567 5556 5545 5534 5524 5515 5507 5500 5493 5488 5484 5481 5480 5479 5480 5482 5484 5487 5491 5494 5497 5501 5504 5508 5512
5782 5774 5766 5757 5747 5737 5725 5712 5700 5686 5672 5658 5644 5632 5619 5607 5595 5583 5570 5558 5546 5535 5523 5513 5504 5496 5488 5482 5476 5472 5470 5469 5468 5469 5471 5474 5478 5481 5485 5489 5493 5497 5502 5506
5776 5768 5760 5751 5741 5731 5718 5705 5692 5678 5665 5651 5638 5626 5613 5601 5589 5576 5563 5550 5538 5526 5515 5505 5496 5487 5480 5473 5467 5464 5461 5461 5460 5461 5463 5466 5470 5474 5478 5483 5487 5492 5497 5503
5770 5762 5753 5744 5734 5723 5711 5698 5685 5671 5658 5645 5633 5621 5609 5597 5584 5571 5558 5545 5532 5520 5509 5499 5489 5481 5473 5467 5461 5458 5456 5455 5455 5456 5458 5461 5465 5469 5474 5479 5484 5489 5495 5500
5763 5755 5746 5736 5726 5716 5705 5693 5680 5666 5653 5641 5629 5617 5605 5593 5580 5568 5555 5543 5531 5519 5507 5496 5486 5478 5470 5464 5459 5455 5454 5453 5453 5455 5457 5459 5463 5467 5472 5477 5482 5488 5494 5500
5757 5749 5741 5731 5721 5711 5700 5688 5676 5662 5649 5638 5626 5614 5602 5590 5578 5566 5554 5543 5531 5520 5508 5497 5488 5479 5471 5465 5460 5457 5455 5455 5455 5456 5458 5461 5465 5469 5474 5479 5484 5490 5495 5501
5751 5744 5736 5726 5717 5706 5695 5684 5672 5659 5647 5635 5624 5613 5602 5590 5579 5567 5556 5544 5532 5521 5511 5501 5492 5483 5476 5470 5466 5462 5460 5460 5460 5461 5463 5466 5469 5473 5477 5482 5487 5493 5499 5505
5746 5738 5731 5722 5713 5702 5691 5680 5668 5656 5644 5633 5622 5612 5602 5591 5580 5570 5559 5548 5538 5527 5517 5507 5499 5491 5484 5478 5474 5471 5469 5468 5468 5469 5470 5473 5476 5479 5483 5488 5493 5499 5505 5512
5740 5733 5726 5717 5708 5698 5688 5677 5665 5654 5642 5632 5622 5612 5603 5593 5584 5574 5563 5552 5542 5533 5524 5515 5507 5500 5494 5489 5484 5481 5479 5478 5478 5479 5481 5483 5486 5489 5492 5497 5502 5508 5514 5521
5735 5728 5720 5713 5704 5694 5684 5674 5663 5652 5641 5631 5621 5612 5603 5594 5586 5577 5568 5558 5549 5540 5532 5524 5517 5511 5505 5500 5497 5494 5492 5491 5490 5491 5493 5495 5497 5500 5504 5508 5513 5519 5525 5531
5729 5722 5715 5708 5699 5691 5682 5672 5661 5650 5639 5630 5621 5612 5605 5597 5589 5580 5572 5564 5556 5548 5541 5534 5527 5522 5517 5513 5510 5507 5505 5505 5504 5504 5505 5507 5510 5513 5516 5521 5525 5530 5536 5542
5722 5716 5710 5703 5695 5687 5678 5669 5659 5649 5639 5630 5621 5613 5606 5599 5592 5584 5577 5570 5563 5557 5550 5544 5539 5534 5530 5526 5523 5521 5519 5519 5518 5518 5519 5520 5523 5525 5529 5533 5538 5543 5548 5553
5716 5711 5705 5698 5690 5682 5674 5665 5657 5648 5639 5630 5622 5614 5608 5601 5595 5588 5582 5576 5571 5565 5559 5554 5550 5545 5541 5538 5536 5534 5532 5532 5531 5532 5532 5534 5536 5539 5542 5546 5549 5554 5558 5563
5709 5704 5699 5692 5685 5678 5670 5662 5654 5646 5637 5629 5622 5615 5608 5603 5597 5592 5587 5582 5577 5572 5568 5563 5559 5555 5552 5549 5547 5545 5544 5544 5544 5544 5545 5546 5548 5550 5553 5557 5560 5563 5567 5571